Home   Weather   Samarkand   Past weeks

Flag for Uzbekistan Past Weather in Samarkand, Uzbekistan — Yesterday and Last 2 Weeks

Now
63 °F

Scattered clouds.


Feels Like: 63 °F
Forecast: 49 / 64 °F
Wind: 1 mph from North

Location: Samarkand

Current Time: Oct 1, 2016 at 12:08:44 PM

Latest Report: Oct 1, 2016 at 11:30 AM


Visibility: N/A

Pressure: 30.15 "Hg (27.70 "Hg at 721m altitude)

Humidity: 59%

Dew Point: 48 °F

Location of SamarkandLocation

Past Weather in Samarkand — Graph

°F

Samarkand Temperature Yesterday

Maximum temperature yesterday: 64 °F (at 3:30 PM)
Minimum temperature yesterday: 55 °F (at 4:30 AM)
Average temperature yesterday: 59 °F

High & Low Weather Summary for the Past Weeks

 TemperatureHumidityPressure
High95 °F (Sep 16, 1:00 PM)88% (Sep 30, 5:00 AM)30.12 "Hg (Sep 30, 5:00 AM)
Low52 °F (Oct 1, 1:30 AM)10% (Sep 16, 3:00 PM)29.68 "Hg (Sep 29, 3:00 PM)
Average74 °F37%29.92 "Hg
* Reported Sep 16 10:00 AM — Oct 1 10:30 AM, Samarkand, Weather by CustomWeather, © 2016

Note: Actual official high and low records may vary slightly from our data, if they occured in-between our weather recording intervals... More about our weather records

Advertising

Samarkand Weather History for the Previous 24 Hours

Scroll right to see more
 ConditionsComfort  
Time TempWeatherWind HumidityBarometerVisibility
10:30 AM
Sat, Oct 1
61 °FClear.No wind63%30.12 "HgN/A
10:00 AM59 °FClear.No wind68%30.12 "HgN/A
9:30 AM57 °FClear.2 mph67%30.12 "HgN/A
9:00 AM57 °FClear.3 mph67%30.12 "HgN/A
8:30 AM55 °FClear.5 mph77%30.09 "HgN/A
8:00 AM55 °FClear.7 mph72%30.09 "HgN/A
7:30 AM54 °FClear.2 mph82%30.07 "HgN/A
7:00 AM52 °FClear.5 mph82%30.07 "HgN/A
5:30 AM54 °FClear.5 mph82%30.04 "Hg4 mi
5:00 AM54 °FClear.5 mph82%30.04 "Hg4 mi
4:30 AM54 °FClear.2 mph82%30.04 "Hg4 mi
4:00 AM54 °FClear.2 mph82%30.04 "Hg4 mi
3:30 AM54 °FCool.3 mph82%30.04 "HgN/A
3:00 AM52 °FClear.No wind88%30.04 "Hg4 mi
2:30 AM52 °FClear.No wind88%30.04 "Hg4 mi
2:00 AM52 °FClear.No wind88%30.04 "Hg4 mi
1:30 AM52 °FClear.3 mph88%30.04 "Hg4 mi
1:00 AM54 °FClear.5 mph82%30.04 "Hg4 mi
12:30 AM54 °FClear.2 mph82%30.04 "Hg4 mi
12:00 AM55 °FClear.7 mph77%30.04 "Hg4 mi
11:30 PM
Fri, Sep 30
55 °FClear.6 mph77%30.04 "Hg4 mi
11:00 PM55 °FClear.7 mph77%30.04 "Hg4 mi
10:30 PM55 °FClear.6 mph77%30.04 "Hg4 mi
10:00 PM57 °FClear.6 mph72%30.04 "Hg4 mi
9:30 PM57 °FClear.6 mph72%30.04 "Hg4 mi
9:00 PM57 °FClear.6 mph72%30.04 "Hg4 mi
8:30 PM57 °FPassing clouds.7 mph72%30.04 "Hg4 mi
8:00 PM59 °FPassing clouds.8 mph68%30.04 "Hg4 mi
7:30 PM59 °FPassing clouds.9 mph68%30.04 "Hg4 mi
7:00 PM61 °FPassing clouds.9 mph63%30.04 "Hg4 mi
6:30 PM61 °FPassing clouds.9 mph63%30.04 "HgN/A
6:00 PM61 °FScattered clouds.8 mph63%30.04 "HgN/A
5:30 PM63 °FScattered clouds.10 mph59%30.04 "HgN/A
5:00 PM64 °FPartly sunny.9 mph60%30.04 "HgN/A
4:30 PM64 °FPartly sunny.6 mph56%30.04 "HgN/A
4:00 PM64 °FPartly sunny.2 mph56%30.04 "HgN/A
3:30 PM64 °FPartly sunny.3 mph56%30.04 "HgN/A
3:00 PM63 °FPartly sunny.3 mph64%30.04 "HgN/A
2:00 PM63 °FPartly sunny.5 mph64%30.04 "HgN/A
1:30 PM61 °FPartly sunny.7 mph68%30.07 "HgN/A
1:00 PM61 °FPartly sunny.8 mph68%30.07 "HgN/A
12:30 PM61 °FOvercast.5 mph68%30.07 "HgN/A
12:00 PM59 °FPartly sunny.6 mph72%30.07 "HgN/A
Weather by CustomWeather, © 2016

See weather overviewHow to use our weather pages